Location: Winter Haven
(28.0220°N, 81.7330°W)
Time: 05:03:53
(UTC-05:00)

Amateur Radio Satellites - All Passes

Search period start: 31 January 2015 04:33
Search period end: 01 February 2015 04:33
Location: Winter Haven, 28.0220°N, 81.7330°W

Satellite Date Start Highest point End Downlink Frequencies (MHz)
Time Altitude Azimuth
DANDE 31 Jan 04:55:20 05:03:09 56° 282° (WNW) 05:11:38 436.750
RS-15 31 Jan 05:11:57 05:22:50 67° 299° (WNW) 05:33:43 29.354- 29.394
CUSAT 1 31 Jan 05:14:59 05:22:14 34° 286° (WNW) 05:29:39 437.405
MOZHAYETS 4 31 Jan 05:17:00 05:21:11 34° 262° (W) 05:25:20
ISS 31 Jan 05:21:07 05:24:24 65° 228° (SW) 05:27:38 145.825
JAS-2 31 Jan 05:30:27 05:36:23 65° 284° (WNW) 05:43:05 435.910
YUBILEINY 31 Jan 05:32:17 05:36:40 15° 68° (ENE) 05:41:47 435.215
CUBESAT XI-V 31 Jan 05:38:46 05:42:09 21° 73° (ENE) 05:45:42 437.345
Cubesat XI-IV 31 Jan 05:58:21 06:02:52 28° 97° (E) 06:07:29 437.490
PHONESAT 2.4 31 Jan 06:06:20 06:07:44 12° 139° (SE) 06:09:16 2401.200-2431.200
AO-7 31 Jan 06:16:05 06:22:19 23° 296° (WNW) 06:28:12 29.400- 29.500
CUTE-I 31 Jan 06:17:17 06:22:23 44° 99° (E) 06:27:30 437.470
PRISM 31 Jan 06:26:36 06:30:39 58° 260° (W) 06:34:42 437.425
VERMONT LUNAR 31 Jan 06:31:25 06:34:44 45° 144° (SE) 06:38:04 437.305
STRAND 1 31 Jan 06:32:19 06:37:20 66° 76° (ENE) 06:42:24 437.568
CUBESAT XI-V 31 Jan 07:15:40 07:19:31 25° 264° (W) 07:23:15 437.345
YUBILEINY 31 Jan 07:25:46 07:34:35 80° 266° (W) 07:43:23 435.215
RS-15 31 Jan 07:32:16 07:37:58 14° 324° (NW) 07:42:58 29.354- 29.394
Cubesat XI-IV 31 Jan 07:38:24 07:42:53 27° 289° (WNW) 07:47:15 437.490
BRITE-PL 31 Jan 07:42:01 07:42:19 10° 88° (E) 07:43:06 437.365/2234.400
PHONESAT 2.4 31 Jan 07:42:25 07:46:00 79° 328° (NNW) 07:49:37 2401.200-2431.200
HO-68 31 Jan 07:55:43 07:59:30 16° 93° (E) 08:03:47 435.675
CUTE-I 31 Jan 07:58:38 08:02:10 17° 290° (WNW) 08:05:27 437.470
VERMONT LUNAR 31 Jan 08:09:57 08:12:56 26° 337° (NNW) 08:15:53 437.305
CUTE 1.7 + AOD 2 31 Jan 08:25:54 08:28:42 18° 94° (E) 08:31:41 437.475
SEEDS 31 Jan 08:52:43 08:56:30 33° 97° (E) 09:00:18 437.485
GOMX 1 31 Jan 09:00:28 09:05:40 55° 99° (E) 09:10:32 467.674
DOVE 4 31 Jan 09:02:51 09:07:32 38° 97° (E) 09:11:59 437.250
SO-50 31 Jan 09:06:58 09:11:00 34° 112° (ESE) 09:15:12 436.795
COMPASS 1 31 Jan 09:15:54 09:19:59 55° 100° (E) 09:24:04 437.405
BRITE-PL 31 Jan 09:15:56 09:21:29 69° 284° (WNW) 09:26:42 437.365/2234.400
ANTELSAT 31 Jan 09:17:28 09:19:08 12° 70° (ENE) 09:21:06 437.575/2403.000
PHONESAT 2.4 31 Jan 09:22:24 09:24:57 18° 343° (NNW) 09:27:29 2401.200-2431.200
TIGRISAT 31 Jan 09:23:15 09:25:33 14° 71° (ENE) 09:28:06 435.000
DELFI C3 31 Jan 09:24:20 09:27:12 19° 95° (E) 09:30:10 145.870
ZACube-1 31 Jan 09:31:22 09:33:19 13° 92° (E) 09:35:29 437.345
CUBEBUG 2 31 Jan 09:32:13 09:35:35 22° 94° (E) 09:39:00 437.445
DX 1 31 Jan 09:34:44 09:37:44 19° 95° (E) 09:40:53 434.975-435.025
CANX-2 31 Jan 09:36:51 09:40:52 44° 284° (WNW) 09:44:51 2200.000
AAUSAT CUBESAT 2 31 Jan 09:40:28 09:44:37 79° 282° (WNW) 09:48:44 437.432
HO-68 31 Jan 09:40:41 09:47:48 69° 287° (WNW) 09:54:53 435.675
FUNcube-1 31 Jan 09:41:46 09:44:39 18° 94° (E) 09:47:39 145.935
POLYITAN 1 31 Jan 09:48:25 09:50:38 14° 71° (ENE) 09:53:06 437.675
VERMONT LUNAR 31 Jan 09:50:42 09:51:50 11° 354° (N) 09:52:55 437.305
CUTE 1.7 + AOD 2 31 Jan 10:01:11 10:04:39 24° 286° (WNW) 10:08:01 437.475
POPSAT HIP 1 31 Jan 10:06:03 10:09:24 23° 73° (ENE) 10:12:52 437.405
UWE-3 31 Jan 10:06:52 10:11:08 49° 99° (E) 10:15:17 435.000/436.395/437.385
DUCHIFAT 1 31 Jan 10:07:21 10:10:43 24° 73° (ENE) 10:14:12 145.980
50 SAT 31 Jan 10:08:54 10:10:40 13° 93° (E) 10:12:40 437.505
Oscar 11 31 Jan 10:09:36 10:13:54 79° 283° (WNW) 10:18:11 145.826/435.025
AISAT 31 Jan 10:09:51 10:12:42 17° 94° (E) 10:15:44 437.250
CINEMA 3 31 Jan 10:10:43 10:15:24 63° 284° (WNW) 10:19:50 145.822/145.860
UNISAT 6 31 Jan 10:14:46 10:19:24 60° 76° (ENE) 10:24:02 437.425
SEEDS 31 Jan 10:29:57 10:32:05 13° 288° (WNW) 10:34:01 437.485
VELOX 1 31 Jan 10:35:53 10:39:58 35° 98° (E) 10:44:05 145.980
CUBEBUG 1 31 Jan 10:39:09 10:41:13 13° 93° (E) 10:43:32 437.445
GOMX 1 31 Jan 10:40:42 10:43:17 13° 292° (WNW) 10:45:29 467.674
NANOSAT C BR1 31 Jan 10:41:32 10:45:46 69° 76° (ENE) 10:50:02 145.865
DOVE 4 31 Jan 10:41:42 10:44:58 17° 290° (WNW) 10:47:55 437.250
UKube-1 31 Jan 10:46:15 10:50:31 54° 285° (WNW) 10:54:46 .
SO-50 31 Jan 10:48:29 10:51:41 18° 307° (NW) 10:54:48 436.795
ANTELSAT 31 Jan 10:51:00 10:55:35 50° 261° (W) 11:00:09 437.575/2403.000
HUMSAT D 31 Jan 10:51:02 10:55:13 75° 101° (E) 10:59:21 437.325/437.525
QB50P2 31 Jan 10:57:09 11:01:24 72° 258° (WSW) 11:05:42 145.880/145.840
TIGRISAT 31 Jan 10:57:31 11:02:00 42° 261° (W) 11:06:27 435.000
DELFI C3 31 Jan 10:59:16 11:02:23 21° 286° (WNW) 11:05:23 145.870
PHONESAT 2.4 31 Jan 11:03:19 11:04:29 11° 1° (N) 11:05:38 2401.200-2431.200
BUGSAT 1 31 Jan 11:05:44 11:09:48 77° 259° (WSW) 11:13:57 437.445
QB50P1 31 Jan 11:05:46 11:09:57 56° 260° (W) 11:14:10 145.935-145.965
ZACube-1 31 Jan 11:05:55 11:09:53 34° 286° (WNW) 11:13:43 437.345
CUBEBUG 2 31 Jan 11:08:43 11:12:15 22° 288° (WNW) 11:15:34 437.445
DX 1 31 Jan 11:10:17 11:14:01 27° 287° (WNW) 11:17:39 434.975-435.025
FUNcube-1 31 Jan 11:17:24 11:21:02 25° 287° (WNW) 11:24:29 145.935
POLYITAN 1 31 Jan 11:22:26 11:26:20 33° 262° (W) 11:30:15 437.675
VERMONT LUNAR 31 Jan 11:29:14 11:30:56 13° 11° (N) 11:32:41 437.305
BEESAT 2 31 Jan 11:32:41 11:36:49 68° 64° (ENE) 11:40:52 435.950
GONETS M04 31 Jan 11:33:52 11:40:04 22° 72° (ENE) 11:46:41
AIST 1 31 Jan 11:39:15 11:43:22 49° 278° (W) 11:47:30
AIST 2 31 Jan 11:40:38 11:44:23 30° 58° (ENE) 11:48:07 435.215
POPSAT HIP 1 31 Jan 11:42:04 11:45:16 20° 265° (W) 11:48:21 437.405
50 SAT 31 Jan 11:42:22 11:45:55 30° 286° (WNW) 11:49:22 437.505
DUCHIFAT 1 31 Jan 11:43:25 11:46:33 19° 265° (W) 11:49:34 145.980
BEESAT 3 31 Jan 11:44:28 11:48:34 71° 245° (WSW) 11:52:36 437.485
AISAT 31 Jan 11:45:26 11:49:24 30° 286° (WNW) 11:53:17 437.250
SPROUT 31 Jan 11:50:31 11:53:44 21° 95° (E) 11:57:04 437.525
ESTCUBE 1 31 Jan 11:55:03 11:59:31 59° 284° (WNW) 12:03:59 437.505/2401.250
RS-15 31 Jan 12:11:41 12:18:06 17° 39° (NE) 12:25:24 29.354- 29.394
VELOX 1 31 Jan 12:13:37 12:16:19 15° 289° (WNW) 12:18:48 145.980
CUBEBUG 1 31 Jan 12:13:38 12:17:46 37° 285° (WNW) 12:21:50 437.445
TISAT 1 31 Jan 12:18:59 12:23:07 46° 99° (E) 12:27:14 437.305
PHONESAT 2.4 31 Jan 12:41:20 12:43:59 19° 17° (NNE) 12:46:39 2401.200-2431.200
Oscar 19 31 Jan 12:50:01 12:54:50 41° 74° (ENE) 12:59:44 437.125/150
PCSat 31 Jan 12:58:32 13:02:35 22° 57° (ENE) 13:06:47 145.827
VERMONT LUNAR 31 Jan 13:06:20 13:09:40 39° 27° (NNE) 13:13:00 437.305
ITAMSAT 1 31 Jan 13:12:26 13:16:14 22° 71° (ENE) 13:20:12 435.822/435.867
AIST 2 31 Jan 13:20:04 13:22:47 16° 250° (WSW) 13:25:18 435.215
SPROUT 31 Jan 13:26:19 13:29:47 23° 287° (WNW) 13:33:08 437.525
GONETS M04 31 Jan 13:28:59 13:37:28 59° 268° (W) 13:45:54
SWISSCUBE 31 Jan 13:47:45 13:52:32 72° 102° (ESE) 13:57:18 437.505
TISAT 1 31 Jan 13:57:49 13:58:35 10° 290° (WNW) 13:59:05 437.305
JUGNU 31 Jan 13:58:43 14:00:44 12° 160° (SSE) 14:02:54 437.505
BEESAT 31 Jan 14:03:04 14:07:52 83° 283° (WNW) 14:12:38 436.000
ITUPSAT 1 31 Jan 14:08:29 14:13:16 74° 284° (WNW) 14:18:04 437.325
PHONESAT 2.4 31 Jan 14:19:15 14:22:54 86° 30° (NNE) 14:26:33 2401.200-2431.200
RS-15 31 Jan 14:21:27 14:32:59 74° 62° (ENE) 14:45:02 29.354- 29.394
Gurwin Techsat 1B 31 Jan 14:21:47 14:27:05 79° 77° (ENE) 14:32:25 435.225
CUSAT 1 31 Jan 14:25:37 14:27:31 12° 64° (ENE) 14:29:31 437.405
HORYU 2 31 Jan 14:28:23 14:31:52 23° 73° (ENE) 14:35:28 437.375
Oscar 19 31 Jan 14:31:01 14:34:23 17° 266° (W) 14:37:29 437.125/150
PCSat 31 Jan 14:41:09 14:46:07 37° 251° (WSW) 14:51:01 145.827
VERMONT LUNAR 31 Jan 14:44:44 14:47:40 24° 218° (SW) 14:50:34 437.305
ITAMSAT 1 31 Jan 14:50:58 14:55:34 32° 262° (W) 15:00:08 435.822/435.867
M-CUBED/EXP-1 PRIME 31 Jan 15:02:59 15:04:28 13° 100° (E) 15:06:11 437.505
STARS 31 Jan 15:10:03 15:14:27 63° 101° (E) 15:18:49 437.465
AO-7 31 Jan 15:13:04 15:20:53 47° 69° (ENE) 15:28:47 29.400- 29.500
KKS-1 31 Jan 15:21:56 15:26:19 56° 284° (WNW) 15:30:41 437.445
AUBIESAT-1 31 Jan 15:32:42 15:35:44 30° 103° (ESE) 15:38:58 437.475
JAS-2 31 Jan 15:37:46 15:41:49 22° 72° (ENE) 15:45:52 435.910
JUGNU 31 Jan 15:44:33 15:49:18 26° 167° (SSE) 15:54:07 437.505
DANDE 31 Jan 15:50:06 15:55:46 78° 264° (W) 15:59:52 436.750
O/OREOS (USA 219) 31 Jan 15:58:48 16:03:14 63° 289° (WNW) 16:07:42 437.305
PHONESAT 2.4 31 Jan 15:59:56 16:01:10 11° 221° (SW) 16:02:16 2401.200-2431.200
HORYU 2 31 Jan 16:04:53 16:08:28 23° 264° (W) 16:11:58 437.375
CUSAT 1 31 Jan 16:06:30 16:11:11 35° 270° (W) 16:14:42 437.405
SRMSAT 31 Jan 16:29:59 16:34:08 20° 164° (SSE) 16:38:23 437.500
RS-15 31 Jan 16:35:57 16:44:47 24° 254° (WSW) 16:53:07 29.354- 29.394
M-CUBED/EXP-1 PRIME 31 Jan 16:36:44 16:39:29 22° 289° (WNW) 16:42:16 437.505
AO-7 31 Jan 17:06:38 17:13:50 30° 262° (W) 17:20:49 29.400- 29.500
Cubesat XI-IV 31 Jan 17:14:03 17:18:09 24° 71° (ENE) 17:22:24 437.490
MOZHAYETS 4 31 Jan 17:18:40 17:23:15 84° 282° (WNW) 17:27:50
JAS-2 31 Jan 17:21:51 17:26:53 31° 262° (W) 17:31:30 435.910
CUTE-I 31 Jan 17:32:31 17:37:18 36° 73° (ENE) 17:42:11 437.470
JUGNU 31 Jan 17:32:33 17:37:56 37° 176° (S) 17:43:22 437.505
PRISM 31 Jan 18:16:31 18:20:15 32° 98° (E) 18:24:03 437.425
SRMSAT 31 Jan 18:17:36 18:22:55 34° 172° (S) 18:28:16 437.500
YUBILEINY 31 Jan 18:23:59 18:30:04 23° 86° (E) 18:36:35 435.215
STRAND 1 31 Jan 18:50:06 18:54:54 40° 99° (E) 18:59:44 437.568
Cubesat XI-IV 31 Jan 18:53:26 18:58:07 31° 263° (W) 19:02:45 437.490
CUTE-I 31 Jan 19:13:38 19:17:30 20° 266° (W) 19:21:11 437.470
CUBESAT XI-V 31 Jan 19:18:30 19:23:08 59° 284° (WNW) 19:27:45 437.345
JUGNU 31 Jan 19:21:17 19:26:38 35° 186° (S) 19:32:00 437.505
SO-50 31 Jan 19:24:45 19:29:40 66° 62° (ENE) 19:34:32 436.795
SEEDS 31 Jan 19:41:17 19:41:58 10° 71° (ENE) 19:42:57 437.485
PRISM 31 Jan 19:53:18 19:55:33 14° 289° (WNW) 19:57:35 437.425
GOMX 1 31 Jan 20:01:31 20:05:44 28° 72° (ENE) 20:10:16 467.674
HO-68 31 Jan 20:01:31 20:08:11 45° 71° (ENE) 20:14:56 435.675
DOVE 4 31 Jan 20:01:57 20:05:28 20° 71° (ENE) 20:09:16 437.250
COMPASS 1 31 Jan 20:02:01 20:04:35 16° 72° (ENE) 20:07:18 437.405
SRMSAT 31 Jan 20:06:15 20:11:47 38° 182° (S) 20:17:18 437.500
YUBILEINY 31 Jan 20:17:54 20:26:25 57° 279° (W) 20:34:54 435.215
BRITE-PL 31 Jan 20:19:01 20:23:54 65° 77° (ENE) 20:29:15 437.365/2234.400
ISS 31 Jan 20:19:25 20:22:40 76° 312° (NW) 20:25:56 145.825
CANX-2 31 Jan 20:22:43 20:26:52 51° 77° (ENE) 20:31:04 2200.000
AAUSAT CUBESAT 2 31 Jan 20:25:12 20:28:45 27° 74° (ENE) 20:32:21 437.432
STRAND 1 31 Jan 20:30:24 20:33:50 18° 290° (WNW) 20:37:04 437.568
CUTE 1.7 + AOD 2 31 Jan 20:46:19 20:50:38 86° 263° (W) 20:54:55 437.475
Oscar 11 31 Jan 20:57:48 21:01:39 32° 75° (ENE) 21:05:33 145.826/435.025
UWE-3 31 Jan 20:57:55 21:01:11 20° 72° (ENE) 21:04:37 435.000/436.395/437.385
CINEMA 3 31 Jan 21:04:46 21:09:31 53° 75° (ENE) 21:14:25 145.822/145.860
JUGNU 31 Jan 21:10:46 21:15:16 22° 195° (SSW) 21:19:45 437.505
SEEDS 31 Jan 21:13:22 21:17:29 45° 261° (W) 21:21:33 437.485
VELOX 1 31 Jan 21:28:44 21:30:54 14° 71° (ENE) 21:33:19 145.980
UKube-1 31 Jan 21:34:21 21:38:31 50° 75° (ENE) 21:42:43 .
COMPASS 1 31 Jan 21:36:27 21:40:08 28° 263° (W) 21:43:44 437.405
HUMSAT D 31 Jan 21:36:56 21:40:15 22° 73° (ENE) 21:43:40 437.325/437.525
DOVE 4 31 Jan 21:38:25 21:42:58 35° 264° (W) 21:47:41 437.250
DELFI C3 31 Jan 21:39:35 21:43:41 89° 252° (WSW) 21:47:46 145.870
GOMX 1 31 Jan 21:39:43 21:43:50 25° 266° (W) 21:48:01 467.674
HO-68 31 Jan 21:50:15 21:56:05 26° 264° (W) 22:01:41 435.675
ZACube-1 31 Jan 21:54:07 21:58:42 76° 76° (ENE) 22:03:20 437.345
AIST 1 31 Jan 21:54:18 21:57:29 20° 77° (ENE) 22:00:48
SRMSAT 31 Jan 21:55:32 22:00:37 29° 192° (SSW) 22:05:39 437.500
DX 1 31 Jan 21:58:18 22:02:38 75° 258° (WSW) 22:07:00 434.975-435.025
CUBEBUG 2 31 Jan 21:58:33 22:03:15 65° 259° (W) 22:08:01 437.445
AAUSAT CUBESAT 2 31 Jan 22:01:44 22:04:28 16° 266° (W) 22:06:59 437.432
FUNcube-1 31 Jan 22:05:07 22:09:42 81° 259° (WSW) 22:14:19 145.935
UNISAT 6 31 Jan 22:15:07 22:18:19 21° 95° (E) 22:21:36 437.425
50 SAT 31 Jan 22:22:12 22:26:16 60° 77° (ENE) 22:30:21 437.505
UWE-3 31 Jan 22:33:26 22:37:32 30° 264° (W) 22:41:37 435.000/436.395/437.385
NANOSAT C BR1 31 Jan 22:34:43 22:37:47 20° 95° (E) 22:40:58 145.865
Oscar 11 31 Jan 22:35:23 22:37:56 15° 267° (W) 22:40:17 145.826/435.025
AISAT 31 Jan 22:35:57 22:40:24 80° 258° (WSW) 22:44:52 437.250
CINEMA 3 31 Jan 22:45:12 22:47:06 12° 270° (W) 22:48:38 145.822/145.860
ESTCUBE 1 31 Jan 22:47:51 22:52:12 52° 75° (ENE) 22:56:34 437.505/2401.250
QB50P2 31 Jan 22:50:03 22:53:53 32° 98° (E) 22:57:43 145.880/145.840
ANTELSAT 31 Jan 22:50:26 22:54:45 60° 100° (E) 22:58:59 437.575/2403.000
BUGSAT 1 31 Jan 22:55:34 22:59:11 27° 97° (E) 23:02:51 437.445
TIGRISAT 31 Jan 22:56:28 23:00:50 70° 101° (ESE) 23:05:06 435.000
QB50P1 31 Jan 22:58:13 23:02:15 40° 99° (E) 23:06:16 145.935-145.965
CUBEBUG 1 31 Jan 23:02:37 23:06:55 75° 78° (ENE) 23:11:17 437.445
VELOX 1 31 Jan 23:03:08 23:07:14 37° 262° (W) 23:11:20 145.980
TISAT 1 31 Jan 23:06:20 23:08:38 15° 72° (ENE) 23:11:08 437.305
HUMSAT D 31 Jan 23:12:32 23:15:58 22° 265° (W) 23:19:18 437.325/437.525
POLYITAN 1 31 Jan 23:14:44 23:19:01 69° 101° (E) 23:23:16 437.675
AIST 1 31 Jan 23:31:40 23:35:06 22° 269° (W) 23:38:26
POPSAT HIP 1 31 Jan 23:33:13 23:37:30 69° 283° (WNW) 23:41:44 437.405
DUCHIFAT 1 31 Jan 23:34:10 23:38:26 68° 283° (WNW) 23:42:40 145.980
SRMSAT 31 Jan 23:46:12 23:49:22 14° 199° (SSW) 23:52:24 437.500
UNISAT 6 31 Jan 23:51:35 23:55:05 23° 287° (WNW) 23:58:25 437.425
NANOSAT C BR1 01 Feb 00:10:09 00:13:38 24° 287° (WNW) 00:16:59 145.865
SPROUT 01 Feb 00:12:41 00:16:59 72° 260° (W) 00:21:18 437.525
GONETS M04 01 Feb 00:25:37 00:33:00 33° 89° (E) 00:40:36
QB50P2 01 Feb 00:27:02 00:29:35 15° 288° (WNW) 00:31:55 145.880/145.840
BUGSAT 1 01 Feb 00:31:34 00:34:31 18° 288° (WNW) 00:37:16 437.445
QB50P1 01 Feb 00:36:03 00:37:50 12° 289° (WNW) 00:39:22 145.935-145.965
TISAT 1 01 Feb 00:40:26 00:44:14 31° 262° (W) 00:48:00 437.305
SWISSCUBE 01 Feb 00:47:52 00:52:10 36° 74° (ENE) 00:56:33 437.505
BEESAT 01 Feb 01:02:48 01:07:21 50° 75° (ENE) 01:11:59 436.000
ITUPSAT 1 01 Feb 01:08:27 01:13:06 57° 76° (ENE) 01:17:47 437.325
Oscar 19 01 Feb 01:09:06 01:13:17 26° 96° (E) 01:17:34 437.125/150
BEESAT 2 01 Feb 01:20:47 01:24:50 73° 115° (ESE) 01:28:58 435.950
BEESAT 3 01 Feb 01:31:53 01:35:55 67° 297° (WNW) 01:40:02 437.485
AIST 2 01 Feb 01:32:11 01:35:58 34° 112° (ESE) 01:39:51 435.215
ITAMSAT 1 01 Feb 01:33:11 01:35:35 14° 92° (E) 01:38:18 435.822/435.867
STARS 01 Feb 02:01:02 02:04:30 23° 72° (ENE) 02:08:05 437.465
KKS-1 01 Feb 02:13:06 02:17:28 54° 75° (ENE) 02:21:52 437.445
O/OREOS (USA 219) 01 Feb 02:15:35 02:20:12 78° 72° (ENE) 02:24:47 437.305
AUBIESAT-1 01 Feb 02:16:27 02:18:44 15° 70° (ENE) 02:21:04 437.475
GONETS M04 01 Feb 02:21:32 02:29:42 41° 282° (WNW) 02:37:42
SWISSCUBE 01 Feb 02:27:14 02:30:12 16° 266° (W) 02:32:56 437.505
RS-15 01 Feb 02:30:07 02:35:22 16° 105° (ESE) 02:41:36 29.354- 29.394
BEESAT 01 Feb 02:43:58 02:45:33 11° 268° (W) 02:46:46 436.000
Gurwin Techsat 1B 01 Feb 02:45:12 02:50:25 58° 100° (E) 02:55:39 435.225
Oscar 19 01 Feb 02:48:19 02:52:35 26° 288° (WNW) 02:56:43 437.125/150
DANDE 01 Feb 03:08:01 03:14:25 28° 88° (E) 03:21:32 436.750
ITAMSAT 1 01 Feb 03:10:21 03:15:24 50° 286° (WNW) 03:20:25 435.822/435.867
AIST 2 01 Feb 03:12:01 03:14:43 16° 306° (NW) 03:17:17 435.215
M-CUBED/EXP-1 PRIME 01 Feb 03:18:44 03:22:51 62° 255° (WSW) 03:26:37 437.505
CUSAT 1 01 Feb 03:20:08 03:27:27 41° 91° (E) 03:35:16 437.405
AO-7 01 Feb 03:23:41 03:29:41 23° 95° (E) 03:36:02 29.400- 29.500
PCSat 01 Feb 03:32:02 03:37:26 79° 113° (ESE) 03:42:52 145.827
STARS 01 Feb 03:37:26 03:40:56 22° 264° (W) 03:44:19 437.465
AUBIESAT-1 01 Feb 03:50:02 03:53:32 26° 257° (WSW) 03:56:45 437.475
HORYU 2 01 Feb 04:02:17 04:06:41 65° 284° (WNW) 04:11:03 437.375
MOZHAYETS 4 01 Feb 04:13:54 04:18:10 39° 75° (ENE) 04:22:27
Gurwin Techsat 1B 01 Feb 04:27:30 04:30:00 13° 291° (WNW) 04:32:09 435.225
